Вернуться в каталог

STARLINK-31174

АктивенСвязьVLEO
NORAD 58808·PAYLOAD·🇺🇸 United States

Запущен Jan 15, 2024 с Cape Canaveral Space Force Station

Loading…

Ближайшие Пролёты (ближайшие 24 часа)

TLE

СвежийSource: CelesTrak SupGP

Эпоха: Sep 14, 2026, 21:00 UTC

1 58808C 24012X   26257.87548611 -.00008109  00000+0 -29370-3 0  2570
2 58808  42.9996 176.4225 0001279 261.4225 115.5577 15.27583174    13

Отслеживайте STARLINK-31174 в реальном времени с AllMySat

Download on the App Store